PulseSat

PulseSat

GSAT0210 (GALILEO 13)

Last updated on April 20, 2019, 3:01 a.m. UTC

1 41550U 16030B   19109.51043592 -.00000033  00000-0  00000+0 0  9990
2 41550  56.6333 293.5876 0000448 266.0758  93.8971  1.70474768 18058
UTC
Height (km)
Latitude
Longitude
Inclination
Orbital Period

Next 30 passes for location: Hong Kong

Rise time Rise Azimuth (degrees) Set time Set Azimuth (degrees) Duration Max altitude (degrees)

No matching passes for this satellites

PulseSat

PulseSat is the new satellites software and hardware trackering solution by Pulsely.
Satellite Two Line Element Set source: US Air Force Space Command

Download PulseSat for iOS
© 2017 Pulsely Limited